Date String (YYYY-MM-DD hh:mm:ss) UTC,Instrument flags,absolute air pressure of the measurement (hPa),sample flow rate (lpm),inlet stack bypass flow (lpm),air temperature of the measurement (°C),ambient temperature measured by the external sensor (°C),aerosol sample conditioner tube jacket temperature (°C),OPC LED temperature (°C),internal box temperature (°C),relative humidity of the measurement (%),span deviation,mass concentration of particles derived from Lorenz-Mie calculation of OPC scattering (μg/m³),mass concentration of particles derived from Lorenz-Mie calculation of OPC scattering (μg/m³),mass concentration of particles derived from Lorenz-Mie calculation of OPC scattering (μg/m³)
DateTimeUTC,F1_M11,P_M11,Q1_M11,Q2_M11,T1_M11,T2_M11,T3_M11,T4_M11,T5_M11,U1_M11,ZSPAN_M11,X0_M11,X2_M11,X1_M11
2023-07-02 08:00:00,SystemResetWarning,0833.2,5.00,000.00,029.4,027.3,000.0,038.0,030.8,26.5,0001.7,0008.71,0004.70,0004.31
2023-07-02 08:01:00,SystemResetWarning,0833.2,4.99,000.00,029.4,027.5,000.0,038.0,030.9,26.3,0001.8,0007.90,0004.70,0004.30
2023-07-02 08:02:00,SystemResetWarning,0833.2,4.99,000.00,029.4,027.6,000.0,038.0,030.9,25.9,0001.5,0007.99,0004.68,0004.29
2023-07-02 08:03:00,SystemResetWarning,0833.2,5.00,000.00,029.4,027.7,000.0,038.0,030.9,25.8,0000.0,0008.66,0004.69,0004.28
2023-07-02 08:04:00,SystemResetWarning,0833.2,5.00,000.00,029.4,027.8,000.0,038.0,030.9,25.7,0000.0,0008.74,0004.70,0004.27
2023-07-02 08:05:00,SystemResetWarning,0833.2,5.01,000.00,029.4,027.9,000.0,038.0,031.0,25.6,0000.0,0008.72,0004.67,0004.25
2023-07-02 08:06:00,SystemResetWarning,0833.2,5.00,000.00,029.4,028.0,000.0,038.0,031.0,25.5,0000.0,0008.72,0004.67,0004.24
2023-07-02 08:07:00,SystemResetWarning,0833.1,5.00,000.00,029.5,028.0,000.0,038.0,031.0,25.6,0000.0,0008.89,0004.66,0004.22
2023-07-02 08:08:00,SystemResetWarning,0833.2,5.00,000.00,029.5,028.1,000.0,038.0,031.0,25.6,0000.0,0008.83,0004.64,0004.20
2023-07-02 08:09:00,SystemResetWarning,0833.1,5.00,000.00,029.5,028.1,000.0,038.0,031.0,25.9,0000.0,0008.40,0004.59,0004.19
2023-07-02 08:10:00,SystemResetWarning,0833.0,5.00,000.00,029.5,028.2,000.0,038.0,031.1,25.8,0000.0,0008.31,0004.58,0004.19
2023-07-02 08:11:00,SystemResetWarning,0833.1,5.00,000.00,029.5,028.2,000.0,038.0,031.1,25.7,0000.0,0008.21,0004.57,0004.18
2023-07-02 08:12:00,SystemResetWarning,0833.4,4.99,000.00,029.5,028.2,000.0,038.1,031.1,25.6,0000.0,0008.28,0004.59,0004.17
2023-07-02 08:13:00,SystemResetWarning,0833.0,5.01,000.00,029.5,028.3,000.0,038.1,031.1,25.5,0001.5,0008.17,0004.58,0004.17
2023-07-02 08:14:00,SystemResetWarning,0833.0,5.00,000.00,029.6,028.3,000.0,038.1,031.2,25.2,0000.0,0007.46,0004.57,0004.18
2023-07-02 08:15:00,SystemResetWarning,0833.0,4.99,000.00,029.6,028.3,000.0,038.1,031.2,24.9,0000.0,0007.47,0004.58,0004.17
2023-07-02 08:16:00,SystemResetWarning,0833.4,4.99,000.00,029.6,028.3,000.0,038.1,031.2,24.6,0000.1,0007.44,0004.57,0004.17
2023-07-02 08:17:00,SystemResetWarning,0833.3,5.00,000.00,029.6,028.4,000.0,038.1,031.2,24.8,0000.0,0007.37,0004.53,0004.17
2023-07-02 08:18:00,SystemResetWarning,0832.8,5.01,000.00,029.6,028.4,000.0,038.1,031.2,24.6,0000.0,0007.22,0004.51,0004.15
2023-07-02 08:19:00,SystemResetWarning,0832.9,5.01,000.00,029.6,028.4,000.0,038.2,031.2,24.6,0000.0,0007.28,0004.50,0004.15
2023-07-02 08:20:00,SystemResetWarning,0832.8,4.99,000.00,029.7,028.4,000.0,038.2,031.3,24.6,0000.0,0008.58,0004.50,0004.14
2023-07-02 08:21:00,SystemResetWarning,0832.8,4.99,000.00,029.7,028.4,000.0,038.2,031.3,24.6,0000.0,0008.77,0004.50,0004.12
2023-07-02 08:22:00,SystemResetWarning,0832.9,5.01,000.00,029.7,028.4,000.0,038.2,031.3,24.5,0000.0,0008.95,0004.50,0004.11
2023-07-02 08:23:00,SystemResetWarning,0832.8,5.01,000.00,029.7,028.5,000.0,038.2,031.3,24.2,0000.0,0009.55,0004.45,0004.11
2023-07-02 08:24:00,SystemResetWarning,0832.9,5.01,000.00,029.7,028.5,000.0,038.2,031.3,24.2,0000.0,0009.72,0004.43,0004.11
2023-07-02 08:25:00,SystemResetWarning,0832.8,5.00,000.00,029.7,028.5,000.0,038.2,031.3,24.1,0000.0,0010.22,0004.42,0004.10
2023-07-02 08:26:00,SystemResetWarning,0833.0,4.98,000.00,029.7,028.5,000.0,038.3,031.3,23.9,0000.0,0010.58,0004.40,0004.10
2023-07-02 08:27:00,SystemResetWarning,0832.8,5.00,000.00,029.8,028.5,000.0,038.3,031.3,23.9,0000.0,0010.66,0004.39,0004.09
2023-07-02 08:28:00,SystemResetWarning,0833.0,5.00,000.00,029.8,028.5,000.0,038.3,031.3,23.9,0000.0,0010.63,0004.37,0004.09
2023-07-02 08:29:00,SystemResetWarning,0832.8,5.01,000.00,029.8,028.5,000.0,038.3,031.3,23.9,0000.0,0010.53,0004.35,0004.10
2023-07-02 08:30:00,SystemResetWarning,0832.9,5.01,000.00,029.8,028.5,000.0,038.3,031.3,23.9,0000.0,0010.46,0004.35,0004.10
2023-07-02 08:31:00,SystemResetWarning,0833.3,4.99,000.00,029.8,028.5,000.0,038.3,031.4,23.8,0000.0,0009.27,0004.35,0004.10
2023-07-02 08:32:00,SystemResetWarning,0833.4,4.99,000.00,029.8,028.6,000.0,038.3,031.4,23.9,0000.0,0009.11,0004.34,0004.10
2023-07-02 08:33:00,SystemResetWarning,0833.1,4.99,000.00,029.8,028.6,000.0,038.4,031.4,23.9,0000.0,0009.04,0004.34,0004.10
2023-07-02 08:34:00,SystemResetWarning,0832.9,5.00,000.00,029.8,028.6,000.0,038.4,031.4,24.1,0000.0,0008.42,0004.35,0004.09
2023-07-02 08:35:00,SystemResetWarning,0833.1,5.00,000.00,029.8,028.6,000.0,038.4,031.4,24.5,0000.0,0008.48,0004.38,0004.08
2023-07-02 08:36:00,SystemResetWarning,0833.2,5.00,000.00,029.9,028.6,000.0,038.4,031.4,24.9,0000.0,0008.38,0004.38,0004.08
2023-07-02 08:37:00,SystemResetWarning,0832.8,5.00,000.00,029.9,028.6,000.0,038.4,031.4,24.4,0000.8,0008.32,0004.37,0004.08
2023-07-02 08:38:00,SystemResetWarning,0832.8,5.01,000.00,029.9,028.6,000.0,038.4,031.4,24.0,0000.6,0008.47,0004.37,0004.08
2023-07-02 08:39:00,SystemResetWarning,0832.8,5.00,000.00,029.9,028.7,000.0,038.4,031.5,23.3,0000.0,0008.54,0004.38,0004.07
2023-07-02 08:40:00,SystemResetWarning,0832.8,4.99,000.00,029.9,028.7,000.0,038.4,031.5,23.6,0000.0,0008.55,0004.38,0004.07
2023-07-02 08:41:00,SystemResetWarning,0832.7,4.99,000.00,029.9,028.7,000.0,038.5,031.5,24.4,0000.0,0008.56,0004.37,0004.05
2023-07-02 08:42:00,SystemResetWarning,0832.7,4.99,000.00,029.9,027.5,000.0,038.4,031.4,24.7,0000.0,0008.41,0004.34,0004.04
2023-07-02 08:43:00,SystemResetWarning,0832.7,5.00,000.00,029.9,025.5,000.0,038.3,031.1,23.7,0000.0,0008.47,0004.35,0004.04
2023-07-02 08:44:00,SystemResetWarning,0832.6,5.00,000.00,029.8,025.0,000.0,038.2,030.8,23.6,0000.0,0008.59,0004.33,0004.04
2023-07-02 08:45:00,SystemResetWarning,0832.6,5.01,000.00,029.6,025.3,000.0,038.2,030.6,23.7,0000.0,0008.60,0004.33,0004.04
2023-07-02 08:46:00,SystemResetWarning,0832.6,5.00,000.00,029.5,025.7,000.0,038.2,030.6,23.7,-000.2,0008.40,0004.29,0004.05
2023-07-02 08:47:00,SystemResetWarning,0832.5,4.99,000.00,029.5,026.1,000.0,038.2,030.7,23.6,-000.7,0008.13,0004.27,0004.04
2023-07-02 08:48:00,SystemResetWarning,0832.5,5.01,000.00,029.4,026.5,000.0,038.2,030.7,23.5,-000.5,0007.94,0004.27,0004.04
2023-07-02 08:49:00,SystemResetWarning,0832.5,5.01,000.00,029.4,026.8,000.0,038.1,030.8,23.5,-000.2,0007.50,0004.27,0004.04
2023-07-02 08:50:00,SystemResetWarning,0832.5,4.99,000.00,029.4,027.1,000.0,038.1,030.8,23.4,0000.0,0007.55,0004.30,0004.05
2023-07-02 08:51:00,SystemResetWarning,0832.5,4.99,000.00,029.4,027.3,000.0,038.1,030.9,23.3,0000.0,0007.55,0004.29,0004.05
2023-07-02 08:52:00,SystemResetWarning,0832.5,5.00,000.00,029.4,027.5,000.0,038.1,030.9,23.4,-000.0,0007.52,0004.30,0004.06
2023-07-02 08:53:00,SystemResetWarning,0832.5,5.00,000.00,029.4,027.7,000.0,038.1,030.9,23.4,0000.0,0008.00,0004.32,0004.06
2023-07-02 08:54:00,SystemResetWarning,0832.5,5.01,000.00,029.4,027.8,000.0,038.1,031.0,23.3,0000.4,0008.00,0004.32,0004.06
2023-07-02 08:55:00,SystemResetWarning,0832.5,5.00,000.00,029.5,027.9,000.0,038.1,031.0,23.2,0000.0,0007.83,0004.31,0004.06
2023-07-02 08:56:00,SystemResetWarning,0832.5,5.00,000.00,029.5,028.0,000.0,038.1,031.0,23.4,0000.3,0007.66,0004.32,0004.05
2023-07-02 08:57:00,SystemResetWarning,0832.5,5.00,000.00,029.5,028.0,000.0,038.1,031.1,23.5,0000.0,0007.69,0004.33,0004.04
2023-07-02 08:58:00,SystemResetWarning,0832.5,5.00,000.00,029.5,028.1,000.0,038.1,031.1,23.7,0000.0,0007.64,0004.35,0004.04
2023-07-02 08:59:00,SystemResetWarning,0832.5,5.00,000.00,029.5,028.1,000.0,038.1,031.1,23.3,0000.0,0007.53,0004.36,0004.05
